OpenBCM V1.13 (Linux)

Packet Radio Mailbox

DB0FHN

[JN59NK Nuernberg]

 Login: GUEST





  
UA9CIR > KEPS     28.02.03 10:06l 109 Lines 2846 Bytes #999 (0) @ AMSAT
BID : ORB03058.M
Read: DB0FHN GUEST
Subj: Orbital Elements  03058.MISC
Path: DB0FHN<DB0RGB<DB0FSG<DB0RBS<DB0SEL<DB0WTS<DB0IUZ<DB0FBB<DB0GOS<ON0AR<
      ON0AR<OZ3BUL<OZ3BOL<OZ2BOH<OZ2DIZ<OZ2BOO<OZ3BOE<UA6ADV<RN6AM<RU9CYA<
      UA9CIR
Sent: 030228/0615Z @:UA9CIR.SVR.RUS.EU #:64958 [Ekaterinburg] $:ORB03058.M
From: UA9CIR@UA9CIR.SVR.RUS.EU
To  : KEPS@AMSAT


HR AMSAT ORBITAL ELEMENTS FOR MANNED AND MISCELLANEOUS SATELLITES
FROM WA5QGD FORT WORTH,TX February 27, 2003
SEND SUBSCRIBE/UNSUBSCRIBE TO majordomo@amsat.org ONLY
BID: ORB03058.M
TO ALL RADIO AMATEURS BT

Satellite: HUBBLE
Catalog number: 20580
Epoch time:      03058.22580071
Element set:     341
Inclination:       28.4694 deg
RA of node:       341.8339 deg
Eccentricity:    0.0003887
Arg of perigee:     3.3471 deg
Mean anomaly:     122.3027 deg
Mean motion:   14.97852246 rev/day
Decay rate:      2.748e-05 rev/day^2
Epoch rev:           50393
Checksum:              286

Satellite: UARS
Catalog number: 21701
Epoch time:      03058.07704627
Element set:     834
Inclination:       56.9833 deg
RA of node:       357.6127 deg
Eccentricity:    0.0004344
Arg of perigee:   112.6563 deg
Mean anomaly:     247.4944 deg
Mean motion:   15.02873935 rev/day
Decay rate:       4.77e-06 rev/day^2
Epoch rev:           62699
Checksum:              315

Satellite: PO-34
Catalog number: 25520
Epoch time:      03057.47011092
Element set:    0653
Inclination:      028.4641 deg
RA of node:       171.2373 deg
Eccentricity:    0.0005549
Arg of perigee:   077.1835 deg
Mean anomaly:     282.9343 deg
Mean motion:   15.13917239 rev/day
Decay rate:      1.667e-05 rev/day^2
Epoch rev:           23878
Checksum:              306

Satellite: ISS
Catalog number: 25544
Epoch time:      03058.88967691
Element set:     733
Inclination:       51.6335 deg
RA of node:       209.1950 deg
Eccentricity:    0.0011979
Arg of perigee:   255.0587 deg
Mean anomaly:     240.1145 deg
Mean motion:   15.58839520 rev/day
Decay rate:     2.6517e-04 rev/day^2
Epoch rev:           24395
Checksum:              325

Satellite: WO-39
Catalog number: 26061
Epoch time:      03058.55583121
Element set:     775
Inclination:      100.2030 deg
RA of node:       117.2899 deg
Eccentricity:    0.0034774
Arg of perigee:   253.6770 deg
Mean anomaly:     106.0587 deg
Mean motion:   14.37834210 rev/day
Decay rate:       3.65e-06 rev/day^2
Epoch rev:           16182
Checksum:              292

Satellite: OO-38
Catalog number: 26063
Epoch time:      03057.71025071
Element set:     729
Inclination:      100.2062 deg
RA of node:       113.7631 deg
Eccentricity:    0.0036737
Arg of perigee:   264.2275 deg
Mean anomaly:      95.4714 deg
Mean motion:   14.35484584 rev/day
Decay rate:       1.04e-06 rev/day^2
Epoch rev:           16155
Checksum:              280

Satellite: NO-45
Catalog number: 26932
Epoch time:      03057.97027898
Element set:    0412
Inclination:      067.0539 deg
RA of node:       233.6875 deg
Eccentricity:    0.0004652
Arg of perigee:   243.2358 deg
Mean anomaly:     116.8269 deg
Mean motion:   14.29296656 rev/day
Decay rate:        1.9e-07 rev/day^2
Epoch rev:           07357
Checksum:              337



Read previous mail | Read next mail


 23.06.2026 14:57:21lGo back Go up